Regional Weather Roundup
Issued by NWS

Home | Current Version | Previous Version | Graphics & Text | Print | Product List | Glossary On
Versions: 1 2 3 4 5 6 7 8 9 10 11 12 13 14 15 16 17 18 19 20 21 22 23 24 25 26 27
000
ASUS45 KBOI 241510
RWRID

IDAHO REGIONAL WEATHER ROUNDUP
NATIONAL WEATHER SERVICE BOISE ID
900 AM MDT SAT JUN 24 2017

NOTE: "FAIR" INDICATES FEW OR NO CLOUDS BELOW 12000 FEET
WITH NO SIGNIFICANT WEATHER AND/OR OBSTRUCTIONS TO VISIBILITY

IDZ012-014-241600-
SOUTHWEST IDAHO


CITY           SKY/WX    TMP DP  RH WIND       PRES   REMARKS
BOISE          SUNNY     63  40  42 W5        30.20R
CALDWELL       SUNNY     68  42  38 W7        30.20R
MOUNTAIN HOME  SUNNY     66  37  35 NE6       30.20R
$$

IDZ016-017-241600-
SOUTHCENTRAL IDAHO


CITY           SKY/WX    TMP DP  RH WIND       PRES   REMARKS
BURLEY         SUNNY     62  44  51 CALM      30.24R
JEROME         SUNNY     62  38  40 S6        30.24R
TWIN FALLS     SUNNY     69  35  28 SW10      30.24R
$$

IDZ019>023-241600-
SOUTHEAST IDAHO


CITY           SKY/WX    TMP DP  RH WIND       PRES   REMARKS
IDAHO FALLS    SUNNY     58  45  62 N3        30.29R
POCATELLO      SUNNY     63  43  48 CALM      30.27R
REXBURG        SUNNY     57  41  55 NE5       30.29S
$$

IDZ006-010-011-018-031-032-241600-
CENTRAL IDAHO MOUNTAINS


CITY           SKY/WX    TMP DP  RH WIND       PRES   REMARKS
MCCALL         SUNNY     55  36  48 S3        30.28R
HAILEY         SUNNY     61  37  41 NW8       30.30S
STANLEY          N/A     51  34  52 CALM      30.38S
SALMON         SUNNY     55  41  58 N3        30.29S
CHALLIS        SUNNY     58  36  43 CALM      30.31S
$$

IDZ002-004-006-007-026-241600-
NORTHERN IDAHO


CITY           SKY/WX    TMP DP  RH WIND       PRES   REMARKS
LEWISTON       SUNNY     62  45  53 CALM      30.23S
LOWELL           N/A     54  45  71 CALM      30.28F
COEUR D`ALENE  SUNNY     62  46  55 NE8       30.26S
MULLAN PASS    SUNNY     58  34  40 CALM      30.37R
$$




USA.gov is the U.S. government's official web portal to all federal, state and local government web resources and services.